Fort Meade, MD

12:54 AM EDT on May 01, 2017 (GMT -0400)
Tipton

Weather History for KFME - February, 2013

Change the Weather History Date:

Wednesday, February 13, 2013

  Actual Average (KBWI) Record (KBWI)
Temperature  
Mean Temperature 35 °F -  
Max Temperature 44 °F 41 °F 72 °F (1951)
Min Temperature 26 °F 23 °F 1 °F (1983)
Degree Days  
Heating Degree Days 30    
Moisture  
Dew Point 29 °F    
Average Humidity 83    
Maximum Humidity 100    
Minimum Humidity 53    
Precipitation  
Precipitation 0.00 in - - ()
Sea Level Pressure  
Sea Level Pressure 29.83 in    
Wind  
Wind Speed 2 mph (NE)    
Max Wind Speed 10 mph    
Max Gust Speed 16 mph    
Visibility 8 miles    
Events      
Averages and records for this station are not official NWS values.
T = Trace of Precipitation, MM = Missing Value Source: NWS Daily Summary

Daily Weather History Graph

Daily Weather History Graph

Search for Another Location

Airport or City:

Trip Planner

Search our weather history database for the weather conditions in past years. The results will help you decide how hot, cold, wet, or windy it might be!

Date:

Astronomy

Feb. 13, 2013 Rise Set
Actual Time 7:00 AM EST 5:42 PM EST
Civil Twilight 6:33 AM EST 6:09 PM EST
Nautical Twilight 6:01 AM EST 6:41 PM EST
Astronomical Twilight 5:30 AM EST 7:12 PM EST
Moon 8:31 AM EST (2/13) 9:40 PM EST (2/13)
Length of Visible Light 11h 36m
Length of Day
10h 41m
Waxing Crescent, 13% of the Moon is Illuminated
Feb 13
Waxing Crescent
Feb 17
First Quarter
Feb 25
Full
Mar 4
Last Quarter
Mar 11
New

Hourly Weather History & Observations

Time (EST) Temp. Windchill Dew Point Humidity Pressure Visibility Wind Dir Wind Speed Gust Speed Precip Events Conditions
12:03 AM 32.0 °F - 28.4 °F 87% 29.98 in 10.0 mi Calm Calm - N/A   Clear
12:24 AM 33.8 °F - 28.4 °F 81% 29.99 in 10.0 mi Calm Calm - N/A   Clear
12:45 AM 33.8 °F - 28.4 °F 81% 29.98 in 10.0 mi Calm Calm - N/A   Clear
1:03 AM 32.0 °F - 28.4 °F 87% 30.00 in 10.0 mi Calm Calm - N/A   Clear
1:24 AM 32.0 °F - 26.6 °F 80% 29.99 in 10.0 mi Calm Calm - N/A   Clear
1:45 AM 30.2 °F - 26.6 °F 86% 29.99 in 10.0 mi Calm Calm - N/A   Clear
2:03 AM 30.2 °F - 26.6 °F 86% 29.97 in 10.0 mi Calm Calm - N/A   Clear
2:24 AM 30.2 °F - 26.6 °F 86% 29.95 in 10.0 mi Calm Calm - N/A   Clear
2:45 AM 28.4 °F 24.6 °F 26.6 °F 93% 29.95 in 10.0 mi ENE 3.5 mph - N/A   Clear
3:03 AM 28.4 °F - 26.6 °F 93% 29.95 in 10.0 mi Calm Calm - N/A   Clear
3:24 AM 28.4 °F - 26.6 °F 93% 29.93 in 10.0 mi Calm Calm - N/A   Clear
3:45 AM 28.4 °F - 26.6 °F 93% 29.92 in 10.0 mi Calm Calm - N/A   Clear
4:03 AM 28.4 °F - 26.6 °F 93% 29.93 in 10.0 mi Calm Calm - N/A   Clear
4:24 AM 26.6 °F - 23.0 °F 86% 29.92 in 10.0 mi Calm Calm - N/A   Clear
4:45 AM 28.4 °F - 24.8 °F 86% 29.93 in 10.0 mi Calm Calm - N/A   Clear
5:03 AM 28.4 °F - 26.6 °F 93% 29.93 in 10.0 mi Calm Calm - N/A   Clear
5:24 AM 28.4 °F - 26.6 °F 93% 29.93 in 10.0 mi Calm Calm - N/A   Clear
5:45 AM 26.6 °F - 24.8 °F 93% 29.93 in 7.0 mi Calm Calm - N/A   Clear
6:03 AM 26.6 °F - 24.8 °F 93% 29.93 in 7.0 mi Calm Calm - N/A   Clear
6:24 AM 28.4 °F - 26.6 °F 93% 29.92 in 7.0 mi Calm Calm - N/A   Clear
6:45 AM 28.4 °F - 26.6 °F 93% 29.92 in 10.0 mi Calm Calm - N/A   Clear
7:03 AM 30.2 °F - 26.6 °F 86% 29.91 in 7.0 mi Calm Calm - N/A   Clear
7:24 AM 32.0 °F 27.5 °F 28.4 °F 87% 29.90 in 10.0 mi ENE 4.6 mph - N/A   Mostly Cloudy
7:45 AM 32.0 °F 28.7 °F 28.4 °F 87% 29.90 in 10.0 mi ENE 3.5 mph - N/A   Overcast
8:24 AM 33.8 °F - 28.4 °F 81% 29.92 in 10.0 mi Calm Calm - N/A   Overcast
8:45 AM 35.6 °F 31.7 °F 28.4 °F 75% 29.91 in 10.0 mi NE 4.6 mph - N/A   Overcast
9:06 AM 35.6 °F 30.7 °F 28.4 °F 75% 29.91 in 10.0 mi East 5.8 mph - N/A   Overcast
9:24 AM - - - N/A% - - North - - N/A   Unknown
9:45 AM 37.4 °F 34.9 °F 30.2 °F 75% 29.89 in 10.0 mi ENE 3.5 mph - N/A   Overcast
10:06 AM 37.4 °F 34.9 °F 28.4 °F 70% 29.90 in 10.0 mi East 3.5 mph - N/A   Overcast
10:24 AM 37.4 °F 33.8 °F 28.4 °F 70% 29.88 in 10.0 mi East 4.6 mph - N/A   Overcast
11:06 AM 39.2 °F 35.0 °F 26.6 °F 61% 29.87 in 10.0 mi East 5.8 mph - N/A   Overcast
11:24 AM 39.2 °F 33.6 °F 26.6 °F 61% 29.86 in 10.0 mi East 8.1 mph - N/A   Overcast
11:45 AM 41.0 °F 34.7 °F 28.4 °F 61% 29.83 in 10.0 mi East 10.4 mph - N/A   Scattered Clouds
12:06 PM 42.8 °F 38.0 °F 28.4 °F 57% 29.82 in 10.0 mi East 8.1 mph 16.1 mph N/A   Clear
12:24 PM 44.6 °F 40.2 °F 28.4 °F 53% 29.80 in 10.0 mi ESE 8.1 mph - N/A   Clear
12:45 PM 42.8 °F 38.0 °F 28.4 °F 57% 29.78 in 10.0 mi East 8.1 mph - N/A   Clear
1:06 PM 42.8 °F 38.0 °F 28.4 °F 57% 29.77 in 10.0 mi East 8.1 mph - N/A   Scattered Clouds
1:24 PM 42.8 °F 39.3 °F 28.4 °F 57% 29.77 in 10.0 mi East 5.8 mph - N/A   Mostly Cloudy
1:45 PM 44.6 °F 41.4 °F 30.2 °F 57% 29.75 in 10.0 mi ENE 5.8 mph - N/A   Overcast
2:06 PM 42.8 °F 38.6 °F 30.2 °F 61% 29.75 in 10.0 mi East 6.9 mph - N/A   Overcast
2:24 PM 42.8 °F 40.1 °F 30.2 °F 61% 29.73 in 10.0 mi ENE 4.6 mph - N/A   Overcast
2:45 PM 42.8 °F 41.1 °F 30.2 °F 61% 29.72 in 10.0 mi NE 3.5 mph - N/A   Overcast
3:06 PM 42.8 °F 40.1 °F 30.2 °F 61% 29.71 in 10.0 mi NE 4.6 mph - N/A   Overcast
3:24 PM 42.8 °F 39.3 °F 30.2 °F 61% 29.70 in 10.0 mi ENE 5.8 mph - N/A   Overcast
3:45 PM 39.2 °F - 32.0 °F 75% 29.69 in 7.0 mi Calm Calm - N/A   Overcast
4:06 PM 39.2 °F - 32.0 °F 75% 29.69 in 7.0 mi Calm Calm - N/A   Overcast
4:27 PM 39.2 °F 35.9 °F 32.0 °F 75% 29.69 in 7.0 mi NNE 4.6 mph - N/A   Overcast
4:45 PM 39.2 °F 37.0 °F 32.0 °F 75% 29.68 in 10.0 mi North 3.5 mph - N/A   Overcast
5:06 PM 37.4 °F - 33.8 °F 87% 29.70 in 5.0 mi Calm Calm - N/A   Overcast
5:27 PM 37.4 °F 34.9 °F 33.8 °F 87% 29.70 in 4.0 mi North 3.5 mph - N/A   Overcast
5:45 PM 37.4 °F 32.8 °F 33.8 °F 87% 29.70 in 4.0 mi NNE 5.8 mph - N/A   Overcast
6:06 PM 35.6 °F 30.7 °F 33.8 °F 93% 29.70 in 5.0 mi NE 5.8 mph - N/A   Overcast
6:27 PM 35.6 °F 30.7 °F 33.8 °F 93% 29.70 in 5.0 mi North 5.8 mph - N/A   Overcast
6:45 PM 35.6 °F 31.7 °F 33.8 °F 93% 29.70 in 4.0 mi North 4.6 mph - N/A   Overcast
7:06 PM 33.8 °F 29.6 °F 32.0 °F 93% 29.70 in 4.0 mi NE 4.6 mph - N/A   Mostly Cloudy
7:27 PM 33.8 °F - 32.0 °F 93% 29.72 in 3.0 mi Calm Calm - N/A   Overcast
7:45 PM 33.8 °F 29.6 °F 32.0 °F 93% 29.72 in 3.0 mi North 4.6 mph - N/A   Overcast
8:06 PM 33.8 °F 30.8 °F 32.0 °F 93% 29.73 in 2.5 mi North 3.5 mph - N/A   Unknown
8:27 PM 32.0 °F 28.7 °F 32.0 °F 100% 29.73 in 1.2 mi NW 3.5 mph - N/A   Overcast
8:45 PM 32.0 °F - 32.0 °F 100% 29.72 in 1.0 mi Calm Calm - N/A   Overcast
9:06 PM 32.0 °F - 32.0 °F 100% 29.72 in 1.0 mi Calm Calm - N/A   Overcast
9:27 PM 32.0 °F 28.7 °F 32.0 °F 100% 29.73 in 1.2 mi WNW 3.5 mph - N/A   Mostly Cloudy
9:45 PM 32.0 °F 28.7 °F 32.0 °F 100% 29.75 in 1.2 mi WNW 3.5 mph - N/A   Overcast
10:06 PM 32.0 °F 28.7 °F 32.0 °F 100% 29.76 in 1.0 mi NW 3.5 mph - N/A   Overcast
10:27 PM 32.0 °F 27.5 °F 32.0 °F 100% 29.76 in 1.0 mi NW 4.6 mph - N/A   Overcast
11:06 PM 32.0 °F - 32.0 °F 100% 29.77 in 1.0 mi Calm Calm - N/A   Overcast
11:27 PM 32.0 °F - 32.0 °F 100% 29.78 in 1.2 mi Calm Calm - N/A   Overcast
11:45 PM 32.0 °F 27.5 °F 32.0 °F 100% 29.78 in 1.8 mi NW 4.6 mph - N/A   Overcast